QPF
0.00 0.00 0.00 0.01 0.00 0.01 0.01 0.01 0.01 0.01 0.01 0.01 0.01 0.01 0.01 0.01 0.01 0.01 0.01 0.01 0.01 0.01 0.01 0.01 0.01 0.01 0.01 0.00 0.00 0.00 0.00 0.00 0.00 0.00 0.00 0.00 0.00 0.00 0.00 0.00 0.00 0.00 0.00
0.00 0.00 0.00 0.01 0.01 0.01 0.01 0.01 0.01 0.01 0.01 0.01 0.01 0.01 0.01 0.01 0.01 0.01 0.01 0.01 0.01 0.01 0.01 0.01 0.01 0.00 0.00 0.00 0.00 0.00 0.00 0.00 0.00 0.00 0.00 0.00 0.00 0.00 0.00 0.00 0.00 0.00 0.00
0.00 0.00 0.00 0.01 0.01 0.01 0.01 0.01 0.01 0.00 0.01 0.01 0.01 0.01 0.01 0.01 0.01 0.01 0.01 0.01 0.01 0.01 0.01 0.01 0.00 0.00 0.00 0.00 0.00 0.00 0.00 0.00 0.00 0.00 0.00 0.00 0.00 0.00 0.00 0.00 0.00 0.00 0.00
0.00 0.00 0.00 0.00 0.01 0.01 0.01 0.01 0.00 0.00 0.01 0.01 0.01 0.01 0.01 0.01 0.01 0.01 0.01 0.00 0.00 0.00 0.00 0.00 0.00 0.00 0.00 0.00 0.00 0.00 0.00 0.00 0.00 0.00 0.00 0.00 0.00 0.00 0.00 0.00 0.00 0.00 0.00
0.00 0.00 0.00 0.01 0.01 0.01 0.01 0.01 0.00 0.00 0.01 0.01 0.01 0.01 0.01 0.01 0.01 0.01 0.00 0.00 0.00 0.00 0.00 0.00 0.00 0.00 0.00 0.00 0.00 0.00 0.00 0.00 0.00 0.00 0.00 0.00 0.00 0.00 0.00 0.00 0.01 0.01 0.00
0.00 0.00 0.00 0.01 0.01 0.01 0.01 0.00 0.00 0.01 0.01 0.01 0.01 0.01 0.01 0.01 0.01 0.00 0.00 0.00 0.00 0.00 0.00 0.00 0.00 0.00 0.00 0.00 0.00 0.00 0.00 0.00 0.00 0.00 0.00 0.00 0.00 0.01 0.01 0.01 0.01 0.01 0.01
0.00 0.00 0.01 0.01 0.01 0.01 0.01 0.01 0.01 0.01 0.01 0.01 0.01 0.01 0.01 0.01 0.01 0.00 0.00 0.00 0.00 0.00 0.00 0.00 0.00 0.00 0.00 0.00 0.00 0.00 0.00 0.00 0.00 0.00 0.00 0.00 0.00 0.01 0.01 0.01 0.01 0.01 0.01
0.00 0.00 0.01 0.01 0.02 0.01 0.01 0.01 0.00 0.00 0.00 0.01 0.01 0.01 0.01 0.01 0.01 0.00 0.00 0.00 0.00 0.00 0.00 0.00 0.00 0.00 0.00 0.00 0.00 0.00 0.00 0.00 0.00 0.00 0.00 0.00 0.00 0.01 0.01 0.01 0.01 0.01 0.01
0.00 0.00 0.01 0.02 0.02 0.01 0.01 0.01 0.00 0.00 0.01 0.00 0.01 0.01 0.01 0.01 0.01 0.01 0.00 0.00 0.00 0.00 0.00 0.00 0.00 0.00 0.00 0.00 0.00 0.00 0.00 0.00 0.00 0.00 0.00 0.00 0.00 0.01 0.01 0.01 0.01 0.01 0.01
0.00 0.00 0.00 0.01 0.02 0.01 0.01 0.01 0.00 0.00 0.01 0.01 0.01 0.00 0.01 0.01 0.01 0.00 0.00 0.00 0.00 0.00 0.00 0.00 0.00 0.00 0.00 0.00 0.00 0.00 0.00 0.00 0.00 0.00 0.00 0.00 0.00 0.01 0.02 0.02 0.01 0.02 0.01
0.00 0.00 0.00 0.01 0.01 0.02 0.01 0.01 0.00 0.00 0.01 0.01 0.00 0.00 0.00 0.00 0.00 0.00 0.00 0.00 0.00 0.00 0.00 0.00 0.00 0.00 0.00 0.00 0.00 0.00 0.00 0.00 0.00 0.00 0.00 0.00 0.00 0.01 0.02 0.01 0.01 0.01 0.01
0.00 0.00 0.00 0.01 0.01 0.02 0.02 0.01 0.01 0.01 0.00 0.00 0.00 0.00 0.00 0.00 0.00 0.00 0.00 0.00 0.00 0.00 0.00 0.00 0.00 0.00 0.00 0.00 0.00 0.00 0.00 0.00 0.00 0.00 0.00 0.00 0.00 0.00 0.01 0.01 0.01 0.01 0.00
0.00 0.00 0.00 0.00 0.01 0.02 0.01 0.01 0.01 0.01 0.01 0.00 0.00 0.00 0.00 0.00 0.00 0.00 0.00 0.00 0.00 0.00 0.00 0.00 0.00 0.00 0.00 0.00 0.00 0.00 0.00 0.00 0.00 0.00 0.00 0.00 0.00 0.00 0.01 0.01 0.01 0.00 0.00
0.00 0.00 0.00 0.00 0.01 0.01 0.01 0.01 0.01 0.01 0.01 0.00 0.00 0.00 0.00 0.00 0.00 0.00 0.00 0.00 0.00 0.00 0.00 0.00 0.00 0.00 0.00 0.00 0.00 0.00 0.00 0.00 0.00 0.00 0.00 0.00 0.00 0.00 0.00 0.01 0.00 0.00 0.00
0.00 0.00 0.00 0.00 0.00 0.01 0.01 0.01 0.01 0.01 0.01 0.00 0.00 0.00 0.00 0.00 0.00 0.00 0.00 0.00 0.00 0.00 0.00 0.00 0.00 0.00 0.00 0.00 0.00 0.00 0.00 0.00 0.00 0.00 0.00 0.00 0.00 0.00 0.00 0.00 0.00 0.00 0.00
0.00 0.00 0.00 0.00 0.00 0.01 0.01 0.01 0.01 0.01 0.01 0.00 0.00 0.00 0.00 0.00 0.00 0.00 0.00 0.00 0.00 0.00 0.00 0.00 0.00 0.00 0.00 0.00 0.00 0.00 0.00 0.00 0.00 0.00 0.00 0.00 0.00 0.00 0.00 0.00 0.00 0.00 0.00
0.00 0.00 0.00 0.00 0.00 0.00 0.00 0.00 0.01 0.01 0.01 0.00 0.00 0.00 0.00 0.00 0.00 0.00 0.00 0.00 0.00 0.00 0.00 0.00 0.00 0.00 0.00 0.00 0.00 0.00 0.00 0.00 0.00 0.00 0.00 0.00 0.00 0.00 0.00 0.00 0.00 0.00 0.00
0.00 0.00 0.00 0.00 0.00 0.00 0.00 0.00 0.00 0.00 0.00 0.00 0.00 0.00 0.00 0.00 0.00 0.00 0.00 0.00 0.00 0.00 0.00 0.00 0.00 0.00 0.00 0.00 0.00 0.00 0.00 0.00 0.00 0.00 0.00 0.00 0.00 0.00 0.00 0.00 0.00 0.00 0.00
0.00 0.00 0.00 0.00 0.00 0.00 0.00 0.00 0.00 0.00 0.00 0.00 0.00 0.00 0.00 0.00 0.00 0.00 0.00 0.00 0.00 0.00 0.00 0.00 0.00 0.00 0.00 0.00 0.00 0.00 0.00 0.00 0.00 0.00 0.00 0.00 0.00 0.00 0.00 0.00 0.00 0.00 0.00
0.00 0.00 0.00 0.00 0.00 0.00 0.01 0.01 0.01 0.01 0.00 0.00 0.00 0.00 0.00 0.00 0.00 0.00 0.00 0.00 0.00 0.00 0.00 0.00 0.00 0.00 0.00 0.00 0.00 0.00 0.00 0.00 0.00 0.00 0.00 0.00 0.00 0.00 0.00 0.00 0.00 0.00 0.00
0.00 0.00 0.00 0.00 0.00 0.00 0.01 0.01 0.01 0.01 0.00 0.00 0.00 0.00 0.00 0.00 0.00 0.00 0.00 0.00 0.00 0.00 0.00 0.00 0.00 0.00 0.00 0.00 0.00 0.00 0.00 0.00 0.00 0.00 0.00 0.00 0.00 0.00 0.00 0.00 0.00 0.00 0.00
0.00 0.00 0.00 0.00 0.00 0.00 0.00 0.00 0.00 0.00 0.00 0.00 0.00 0.00 0.00 0.00 0.00 0.00 0.00 0.00 0.00 0.00 0.00 0.00 0.00 0.00 0.00 0.00 0.00 0.00 0.00 0.00 0.00 0.00 0.00 0.00 0.00 0.00 0.00 0.00 0.00 0.00 0.00
0.00 0.00 0.00 0.00 0.00 0.00 0.00 0.00 0.00 0.00 0.01 0.00 0.00 0.00 0.00 0.00 0.00 0.00 0.00 0.00 0.00 0.00 0.00 0.00 0.00 0.00 0.00 0.00 0.00 0.00 0.00 0.00 0.00 0.00 0.00 0.00 0.00 0.00 0.00 0.00 0.00 0.00 0.00
0.00 0.00 0.00 0.00 0.00 0.00 0.00 0.00 0.00 0.00 0.00 0.00 0.00 0.00 0.00 0.00 0.00 0.00 0.00 0.00 0.00 0.00 0.00 0.00 0.00 0.00 0.00 0.00 0.00 0.00 0.00 0.00 0.00 0.00 0.00 0.00 0.00 0.00 0.00 0.00 0.00 0.00 0.00
0.00 0.00 0.00 0.00 0.00 0.00 0.00 0.00 0.00 0.00 0.00 0.00 0.00 0.00 0.00 0.00 0.00 0.00 0.00 0.00 0.00 0.00 0.00 0.00 0.00 0.00 0.00 0.00 0.00 0.00 0.00 0.00 0.00 0.00 0.00 0.00 0.00 0.00 0.00 0.00 0.00 0.00 0.00
0.00 0.00 0.00 0.00 0.00 0.00 0.00 0.00 0.00 0.00 0.00 0.00 0.00 0.00 0.00 0.00 0.00 0.00 0.00 0.00 0.00 0.00 0.00 0.00 0.00 0.00 0.00 0.00 0.00 0.00 0.00 0.00 0.00 0.00 0.00 0.00 0.00 0.00 0.00 0.00 0.00 0.00 0.00
MSLP
1006.82 1007.19 1007.64 1008.16 1008.71 1009.27 1009.81 1010.30 1010.75 1011.16 1011.54 1011.93 1012.33 1012.76 1013.20 1013.63 1014.04 1014.40 1014.70 1014.94 1015.15 1015.33 1015.50 1015.69 1015.90 1016.11 1016.33 1016.53 1016.70 1016.84 1016.96 1017.06 1017.16 1017.26 1017.36 1017.46 1017.54 1017.60 1017.62 1017.60 1017.53 1017.45 1017.36
1006.42 1006.87 1007.42 1008.04 1008.68 1009.31 1009.90 1010.42 1010.88 1011.29 1011.68 1012.08 1012.50 1012.95 1013.41 1013.86 1014.29 1014.67 1014.99 1015.25 1015.48 1015.68 1015.89 1016.11 1016.33 1016.56 1016.78 1016.97 1017.13 1017.25 1017.34 1017.42 1017.51 1017.60 1017.71 1017.81 1017.91 1017.97 1018.00 1017.98 1017.92 1017.84 1017.76
1005.99 1006.54 1007.18 1007.90 1008.63 1009.33 1009.98 1010.54 1011.03 1011.46 1011.87 1012.27 1012.70 1013.15 1013.62 1014.08 1014.51 1014.89 1015.21 1015.49 1015.74 1015.98 1016.23 1016.48 1016.74 1016.99 1017.21 1017.40 1017.53 1017.62 1017.69 1017.75 1017.81 1017.90 1018.01 1018.13 1018.23 1018.30 1018.32 1018.30 1018.25 1018.18 1018.11
1005.63 1006.26 1006.99 1007.78 1008.59 1009.36 1010.06 1010.66 1011.18 1011.64 1012.06 1012.48 1012.91 1013.36 1013.82 1014.27 1014.69 1015.06 1015.39 1015.68 1015.96 1016.23 1016.52 1016.82 1017.12 1017.39 1017.62 1017.79 1017.91 1017.97 1018.01 1018.05 1018.11 1018.19 1018.30 1018.42 1018.52 1018.59 1018.61 1018.60 1018.54 1018.48 1018.42
1005.40 1006.09 1006.89 1007.74 1008.60 1009.41 1010.15 1010.78 1011.32 1011.80 1012.24 1012.67 1013.12 1013.57 1014.03 1014.47 1014.87 1015.23 1015.56 1015.86 1016.16 1016.47 1016.80 1017.14 1017.47 1017.77 1018.00 1018.17 1018.27 1018.31 1018.33 1018.35 1018.40 1018.48 1018.59 1018.71 1018.81 1018.87 1018.89 1018.87 1018.81 1018.75 1018.70
1005.34 1006.08 1006.92 1007.80 1008.69 1009.51 1010.25 1010.89 1011.44 1011.93 1012.39 1012.85 1013.31 1013.78 1014.24 1014.68 1015.07 1015.43 1015.75 1016.06 1016.38 1016.72 1017.08 1017.46 1017.81 1018.12 1018.36 1018.52 1018.61 1018.64 1018.65 1018.66 1018.70 1018.79 1018.90 1019.01 1019.11 1019.16 1019.17 1019.13 1019.06 1018.99 1018.95
1005.46 1006.23 1007.08 1007.97 1008.84 1009.65 1010.37 1011.00 1011.55 1012.05 1012.53 1013.01 1013.50 1014.00 1014.47 1014.92 1015.32 1015.68 1016.00 1016.32 1016.65 1017.01 1017.39 1017.78 1018.15 1018.46 1018.70 1018.85 1018.93 1018.95 1018.95 1018.97 1019.02 1019.11 1019.22 1019.34 1019.43 1019.47 1019.45 1019.39 1019.31 1019.23 1019.17
1005.68 1006.47 1007.33 1008.20 1009.05 1009.82 1010.50 1011.10 1011.63 1012.14 1012.64 1013.16 1013.69 1014.22 1014.73 1015.20 1015.62 1015.98 1016.32 1016.64 1016.98 1017.34 1017.72 1018.11 1018.47 1018.78 1019.00 1019.15 1019.21 1019.23 1019.24 1019.27 1019.33 1019.44 1019.56 1019.67 1019.76 1019.78 1019.74 1019.66 1019.56 1019.46 1019.40
1005.92 1006.73 1007.59 1008.44 1009.25 1009.97 1010.61 1011.18 1011.70 1012.21 1012.74 1013.30 1013.88 1014.46 1015.01 1015.51 1015.95 1016.34 1016.68 1017.00 1017.33 1017.69 1018.06 1018.43 1018.77 1019.06 1019.27 1019.39 1019.46 1019.48 1019.50 1019.55 1019.63 1019.75 1019.88 1020.00 1020.07 1020.08 1020.03 1019.93 1019.80 1019.69 1019.63
1006.08 1006.91 1007.78 1008.62 1009.39 1010.08 1010.68 1011.22 1011.74 1012.26 1012.82 1013.42 1014.05 1014.68 1015.28 1015.82 1016.29 1016.69 1017.04 1017.37 1017.69 1018.03 1018.38 1018.72 1019.03 1019.29 1019.48 1019.59 1019.65 1019.69 1019.72 1019.78 1019.88 1020.02 1020.16 1020.28 1020.36 1020.36 1020.30 1020.19 1020.05 1019.94 1019.87
1006.08 1006.95 1007.83 1008.67 1009.43 1010.09 1010.68 1011.21 1011.73 1012.27 1012.86 1013.51 1014.18 1014.85 1015.50 1016.07 1016.57 1017.00 1017.36 1017.68 1018.00 1018.32 1018.64 1018.95 1019.24 1019.47 1019.64 1019.74 1019.80 1019.85 1019.90 1019.98 1020.10 1020.25 1020.40 1020.52 1020.60 1020.60 1020.54 1020.43 1020.30 1020.20 1020.14
1005.91 1006.81 1007.71 1008.56 1009.32 1009.99 1010.58 1011.12 1011.66 1012.23 1012.85 1013.53 1014.24 1014.95 1015.62 1016.23 1016.76 1017.20 1017.58 1017.91 1018.23 1018.53 1018.84 1019.12 1019.38 1019.59 1019.75 1019.85 1019.92 1019.98 1020.04 1020.14 1020.27 1020.43 1020.58 1020.71 1020.79 1020.81 1020.76 1020.67 1020.56 1020.48 1020.43
1005.58 1006.51 1007.43 1008.29 1009.07 1009.76 1010.37 1010.95 1011.52 1012.12 1012.78 1013.48 1014.21 1014.94 1015.63 1016.26 1016.81 1017.28 1017.67 1018.02 1018.34 1018.65 1018.95 1019.22 1019.47 1019.67 1019.83 1019.94 1020.02 1020.09 1020.17 1020.28 1020.41 1020.57 1020.73 1020.86 1020.95 1020.98 1020.96 1020.90 1020.83 1020.78 1020.76
1005.15 1006.08 1007.01 1007.90 1008.71 1009.43 1010.09 1010.71 1011.32 1011.96 1012.63 1013.35 1014.08 1014.81 1015.51 1016.15 1016.72 1017.21 1017.63 1018.01 1018.35 1018.67 1018.98 1019.26 1019.51 1019.72 1019.88 1020.00 1020.10 1020.19 1020.29 1020.40 1020.54 1020.70 1020.85 1020.99 1021.08 1021.14 1021.15 1021.14 1021.11 1021.10 1021.12
1004.66 1005.59 1006.52 1007.43 1008.27 1009.04 1009.76 1010.43 1011.09 1011.76 1012.44 1013.16 1013.88 1014.59 1015.28 1015.92 1016.50 1017.01 1017.47 1017.88 1018.26 1018.62 1018.94 1019.24 1019.51 1019.74 1019.92 1020.07 1020.20 1020.31 1020.42 1020.54 1020.68 1020.83 1020.98 1021.11 1021.22 1021.30 1021.35 1021.38 1021.40 1021.44 1021.49
1004.17 1005.07 1006.00 1006.92 1007.81 1008.64 1009.41 1010.15 1010.86 1011.55 1012.24 1012.94 1013.63 1014.31 1014.97 1015.60 1016.19 1016.73 1017.22 1017.68 1018.11 1018.50 1018.87 1019.20 1019.49 1019.75 1019.96 1020.14 1020.30 1020.44 1020.57 1020.70 1020.84 1020.98 1021.12 1021.25 1021.36 1021.46 1021.55 1021.62 1021.69 1021.77 1021.85
1003.68 1004.56 1005.48 1006.42 1007.35 1008.24 1009.09 1009.89 1010.65 1011.36 1012.06 1012.72 1013.38 1014.02 1014.64 1015.25 1015.84 1016.40 1016.93 1017.44 1017.91 1018.35 1018.76 1019.13 1019.46 1019.75 1020.00 1020.21 1020.40 1020.57 1020.73 1020.88 1021.02 1021.15 1021.28 1021.40 1021.52 1021.64 1021.75 1021.86 1021.97 1022.08 1022.18
1003.17 1004.03 1004.95 1005.92 1006.90 1007.86 1008.79 1009.66 1010.47 1011.22 1011.91 1012.54 1013.15 1013.74 1014.32 1014.90 1015.48 1016.06 1016.63 1017.18 1017.70 1018.18 1018.63 1019.03 1019.40 1019.72 1020.01 1020.27 1020.50 1020.71 1020.89 1021.06 1021.20 1021.34 1021.46 1021.58 1021.70 1021.82 1021.95 1022.08 1022.21 1022.34 1022.45
1002.60 1003.45 1004.38 1005.39 1006.44 1007.48 1008.50 1009.45 1010.32 1011.10 1011.79 1012.40 1012.96 1013.50 1014.03 1014.58 1015.15 1015.73 1016.32 1016.91 1017.47 1017.99 1018.47 1018.91 1019.30 1019.66 1019.99 1020.29 1020.56 1020.81 1021.03 1021.22 1021.39 1021.52 1021.64 1021.76 1021.87 1021.99 1022.12 1022.26 1022.40 1022.54 1022.65
1001.93 1002.79 1003.76 1004.82 1005.94 1007.08 1008.19 1009.23 1010.16 1010.98 1011.67 1012.26 1012.78 1013.27 1013.76 1014.28 1014.83 1015.42 1016.02 1016.63 1017.21 1017.76 1018.27 1018.73 1019.16 1019.55 1019.91 1020.25 1020.57 1020.87 1021.13 1021.35 1021.54 1021.68 1021.80 1021.91 1022.01 1022.12 1022.25 1022.39 1022.54 1022.67 1022.79
1001.16 1002.04 1003.05 1004.17 1005.37 1006.60 1007.81 1008.93 1009.94 1010.80 1011.50 1012.08 1012.58 1013.04 1013.49 1013.97 1014.51 1015.09 1015.70 1016.32 1016.92 1017.49 1018.01 1018.49 1018.94 1019.36 1019.75 1020.14 1020.51 1020.85 1021.16 1021.42 1021.63 1021.79 1021.91 1022.01 1022.10 1022.20 1022.32 1022.46 1022.60 1022.73 1022.85
1000.30 1001.22 1002.27 1003.45 1004.72 1006.03 1007.32 1008.53 1009.59 1010.50 1011.23 1011.82 1012.30 1012.73 1013.16 1013.63 1014.15 1014.72 1015.33 1015.96 1016.57 1017.15 1017.68 1018.18 1018.64 1019.08 1019.51 1019.94 1020.35 1020.74 1021.09 1021.39 1021.63 1021.81 1021.94 1022.04 1022.12 1022.21 1022.32 1022.45 1022.58 1022.72 1022.84
999.43 1000.37 1001.46 1002.68 1004.00 1005.36 1006.71 1007.97 1009.09 1010.04 1010.80 1011.40 1011.89 1012.32 1012.75 1013.21 1013.72 1014.29 1014.91 1015.53 1016.15 1016.73 1017.27 1017.78 1018.25 1018.72 1019.18 1019.64 1020.09 1020.52 1020.92 1021.25 1021.52 1021.72 1021.86 1021.97 1022.05 1022.13 1022.23 1022.36 1022.49 1022.63 1022.76
998.60 999.56 1000.66 1001.89 1003.22 1004.60 1005.97 1007.26 1008.41 1009.39 1010.18 1010.81 1011.33 1011.78 1012.22 1012.69 1013.22 1013.80 1014.41 1015.04 1015.66 1016.24 1016.79 1017.30 1017.79 1018.27 1018.75 1019.24 1019.72 1020.19 1020.63 1021.00 1021.30 1021.52 1021.68 1021.79 1021.88 1021.96 1022.06 1022.18 1022.31 1022.46 1022.60
997.89 998.85 999.93 1001.13 1002.43 1003.79 1005.14 1006.42 1007.58 1008.57 1009.39 1010.06 1010.61 1011.10 1011.58 1012.09 1012.64 1013.23 1013.86 1014.50 1015.12 1015.70 1016.24 1016.76 1017.25 1017.74 1018.24 1018.75 1019.26 1019.76 1020.23 1020.63 1020.96 1021.21 1021.38 1021.51 1021.60 1021.69 1021.79 1021.91 1022.05 1022.21 1022.36
997.30 998.24 999.29 1000.43 1001.67 1002.96 1004.25 1005.49 1006.62 1007.62 1008.46 1009.16 1009.76 1010.31 1010.85 1011.40 1012.00 1012.62 1013.27 1013.92 1014.54 1015.12 1015.66 1016.17 1016.66 1017.16 1017.66 1018.19 1018.72 1019.24 1019.73 1020.16 1020.52 1020.79 1020.99 1021.14 1021.24 1021.34 1021.45 1021.57 1021.71 1021.87 1022.03
Thickness
5776 5775 5771 5769 5767 5765 5763 5761 5760 5758 5757 5755 5754 5752 5751 5749 5747 5746 5745 5743 5742 5741 5739 5738 5736 5734 5732 5730 5728 5727 5725 5724 5723 5722 5720 5719 5718 5716 5715 5714 5713 5711 5711
5780 5774 5768 5766 5763 5761 5760 5758 5756 5754 5753 5751 5750 5748 5747 5745 5743 5742 5741 5740 5738 5737 5735 5733 5731 5729 5727 5725 5723 5722 5721 5720 5719 5718 5715 5714 5712 5711 5710 5709 5707 5706 5705
5776 5770 5765 5762 5760 5758 5756 5754 5752 5750 5749 5747 5746 5744 5743 5741 5739 5738 5737 5736 5734 5732 5730 5728 5726 5724 5722 5720 5719 5717 5716 5716 5715 5714 5711 5709 5707 5706 5704 5703 5702 5700 5699
5772 5765 5761 5758 5756 5753 5752 5750 5748 5746 5745 5743 5742 5740 5739 5737 5735 5734 5732 5731 5729 5727 5725 5724 5721 5719 5717 5715 5714 5713 5712 5711 5711 5709 5707 5704 5702 5701 5699 5697 5696 5694 5693
5766 5761 5757 5754 5751 5749 5747 5746 5744 5742 5741 5739 5738 5736 5734 5733 5731 5729 5728 5726 5724 5723 5721 5719 5717 5714 5712 5711 5709 5708 5708 5707 5706 5704 5701 5698 5697 5696 5694 5692 5690 5689 5687
5760 5756 5751 5749 5747 5745 5743 5741 5740 5738 5736 5735 5733 5732 5730 5729 5727 5725 5723 5721 5720 5718 5716 5714 5712 5710 5708 5706 5705 5704 5703 5702 5701 5699 5696 5693 5691 5690 5688 5686 5684 5683 5681
5756 5751 5746 5744 5742 5740 5738 5736 5735 5734 5732 5731 5729 5728 5726 5724 5722 5720 5718 5717 5715 5714 5712 5710 5708 5706 5704 5702 5700 5699 5698 5697 5696 5694 5690 5688 5686 5685 5683 5681 5679 5677 5675
5751 5746 5740 5738 5737 5735 5733 5732 5731 5729 5728 5726 5725 5724 5722 5719 5717 5716 5714 5712 5711 5709 5708 5706 5704 5701 5699 5697 5696 5695 5694 5693 5691 5689 5685 5682 5680 5679 5677 5675 5672 5670 5668
5746 5740 5736 5733 5731 5730 5729 5727 5726 5725 5723 5722 5721 5719 5717 5715 5713 5711 5710 5708 5706 5705 5703 5701 5699 5697 5695 5693 5691 5690 5689 5688 5686 5683 5679 5676 5674 5673 5671 5668 5666 5663 5661
5740 5736 5732 5729 5727 5725 5724 5722 5721 5720 5719 5718 5716 5714 5713 5711 5709 5707 5705 5703 5702 5700 5698 5696 5695 5692 5690 5688 5687 5686 5685 5683 5681 5677 5673 5670 5668 5667 5664 5661 5659 5656 5653
5734 5731 5729 5726 5724 5722 5719 5718 5717 5716 5714 5713 5712 5710 5708 5706 5705 5703 5700 5699 5697 5695 5694 5692 5690 5688 5686 5684 5683 5681 5680 5678 5676 5671 5667 5664 5662 5660 5657 5654 5651 5648 5645
5729 5728 5727 5724 5722 5719 5717 5714 5712 5711 5710 5709 5707 5706 5705 5703 5701 5699 5696 5694 5693 5691 5689 5688 5686 5684 5681 5680 5678 5677 5675 5674 5670 5665 5661 5658 5655 5653 5650 5647 5643 5640 5637
5727 5726 5724 5722 5720 5717 5715 5711 5710 5708 5706 5706 5704 5703 5702 5700 5698 5695 5692 5690 5689 5687 5685 5683 5682 5680 5678 5676 5674 5672 5671 5669 5665 5659 5655 5651 5649 5646 5643 5639 5636 5632 5628
5723 5722 5722 5720 5717 5715 5712 5710 5708 5707 5704 5704 5702 5701 5700 5698 5695 5692 5690 5687 5686 5684 5682 5680 5679 5677 5675 5673 5670 5668 5665 5663 5659 5653 5648 5645 5642 5639 5635 5631 5628 5624 5620
5719 5719 5720 5719 5716 5713 5710 5708 5707 5705 5703 5702 5700 5699 5697 5695 5692 5690 5688 5686 5684 5682 5679 5677 5676 5674 5671 5668 5665 5663 5660 5657 5653 5647 5642 5638 5634 5631 5627 5623 5619 5616 5612
5719 5718 5718 5716 5714 5711 5708 5706 5705 5704 5702 5700 5698 5697 5695 5693 5690 5688 5686 5684 5682 5679 5676 5674 5672 5669 5666 5663 5660 5657 5654 5651 5647 5642 5636 5631 5627 5623 5619 5615 5611 5608 5604
5719 5717 5715 5714 5712 5709 5707 5705 5704 5702 5700 5699 5696 5694 5692 5690 5688 5686 5684 5681 5679 5676 5673 5670 5668 5665 5661 5658 5654 5651 5647 5644 5640 5636 5630 5625 5620 5615 5611 5607 5603 5599 5596
5717 5715 5713 5712 5710 5707 5705 5703 5702 5700 5698 5697 5694 5692 5690 5688 5686 5683 5681 5678 5676 5672 5669 5666 5663 5659 5655 5651 5647 5644 5641 5637 5633 5629 5624 5619 5614 5609 5604 5599 5595 5591 5588
5717 5714 5712 5710 5708 5705 5703 5701 5699 5697 5695 5694 5692 5690 5688 5686 5683 5681 5678 5675 5672 5668 5665 5662 5658 5653 5648 5644 5640 5637 5634 5630 5626 5622 5618 5613 5608 5603 5598 5593 5588 5584 5580
5716 5714 5710 5707 5705 5702 5699 5697 5695 5693 5692 5691 5689 5688 5686 5683 5681 5678 5675 5672 5669 5664 5660 5657 5652 5648 5643 5638 5635 5630 5626 5623 5620 5616 5612 5607 5602 5597 5592 5587 5582 5577 5573
5713 5711 5708 5705 5703 5700 5697 5695 5692 5690 5689 5688 5687 5685 5683 5681 5678 5675 5672 5669 5665 5661 5656 5653 5648 5642 5637 5633 5626 5620 5618 5616 5613 5609 5606 5601 5596 5591 5586 5581 5576 5571 5566
5711 5710 5708 5705 5703 5701 5699 5697 5694 5689 5687 5685 5684 5682 5681 5679 5676 5673 5670 5666 5662 5657 5653 5649 5644 5637 5632 5628 5621 5613 5608 5605 5604 5604 5600 5595 5590 5586 5581 5576 5571 5566 5561
5708 5709 5709 5706 5703 5701 5698 5693 5688 5684 5681 5680 5679 5679 5678 5676 5674 5671 5667 5663 5659 5654 5649 5645 5640 5634 5626 5622 5619 5612 5604 5600 5596 5595 5592 5589 5584 5580 5575 5571 5566 5561 5556
5708 5709 5708 5706 5703 5700 5696 5692 5689 5686 5684 5685 5682 5679 5676 5674 5671 5668 5664 5660 5656 5652 5647 5642 5638 5632 5624 5617 5613 5610 5606 5601 5593 5586 5583 5582 5579 5574 5570 5566 5561 5556 5551
5707 5706 5706 5703 5700 5698 5695 5693 5689 5687 5686 5683 5679 5675 5673 5671 5669 5666 5662 5658 5653 5649 5644 5639 5634 5628 5622 5615 5609 5604 5600 5596 5592 5583 5576 5573 5570 5569 5565 5561 5556 5551 5545
5703 5702 5701 5699 5698 5696 5694 5692 5690 5687 5684 5680 5677 5674 5671 5669 5666 5663 5659 5655 5651 5646 5641 5637 5631 5625 5619 5613 5607 5601 5596 5589 5584 5579 5573 5568 5564 5562 5560 5555 5550 5546 5540